DW6345 Murcia ES current weather conditions

sailwx.info

Wind from 132 at 5 knots gusting 17

Air temperature 25.6° C
Dewpoint 15.0° C

Last reported at 2018-May-27 11:09 UTC.
Time now 2018-May-27 11:31 UTC

Location: N 37°60' W 001°06'.
View on Google Maps.

See reports from other nearby stations

  
Tides and Currents Weather Stations Pressure Air Temp Water Temp Dewpoint Dewpoint Depression Visibility Wind Speed Wind Dir Waves Ship Positions
date/time (UTC)wind fromknots sea level pressurealtimeterstation pressurevisibilityair tempwater tempwave heightnotes
2018-May-27 11:09 132 5 gusting 17 25.6
2018-May-27 11:04 170 4 gusting 10 25.6
2018-May-27 10:59 203 4 gusting 6 25.6
2018-May-27 10:54 102 2 gusting 6 25.6
2018-May-27 10:49 202 2 gusting 6 25.0
2018-May-27 10:44 153 2 gusting 6 25.0
2018-May-27 10:39 087 2 gusting 6 25.0
2018-May-27 10:34 194 4 gusting 5 24.4
2018-May-27 10:29 244 4 gusting 6 24.4
2018-May-27 10:24 338 2 gusting 7 23.9
2018-May-27 10:19 005 2 gusting 6 23.9
2018-May-27 10:14 045 2 gusting 6 23.9
2018-May-27 10:09 336 2 gusting 6 23.9
2018-May-27 10:04 064 2 gusting 6 23.9
2018-May-27 09:59 284 2 gusting 4 23.3
2018-May-27 09:54 107 1 gusting 6 23.3
2018-May-27 09:49 123 1 gusting 6 23.3
2018-May-27 09:44 095 4 gusting 6 23.3
2018-May-27 09:39 115 4 gusting 5 23.3
2018-May-27 09:34 115 1 gusting 6 22.8
2018-May-27 09:29 147 1 gusting 5 22.8
2018-May-27 09:24 079 5 gusting 5 22.8
2018-May-27 09:19 343 5 gusting 6 22.2
2018-May-27 09:14 211 6 gusting 7 22.2
2018-May-27 09:09 180 6 gusting 8 22.8
2018-May-27 09:04 129 6 gusting 10 22.2
2018-May-27 08:59 119 6 gusting 10 22.2
2018-May-27 08:54 131 6 gusting 11 21.7
2018-May-27 08:49 134 6 gusting 13 21.7
2018-May-27 08:44 147 4 gusting 12 21.7
2018-May-27 08:39 151 4 gusting 11 21.1
2018-May-27 08:34 209 2 gusting 6 21.7
2018-May-27 08:29 192 2 gusting 6 21.7
2018-May-27 08:24 156 4 gusting 6 21.1
2018-May-27 08:19 209 4 gusting 4 21.1
2018-May-27 08:14 200 4 gusting 6 21.1
2018-May-27 08:09 152 4 gusting 6 21.1
2018-May-27 08:04 184 2 gusting 6 21.1
2018-May-27 07:59 173 2 gusting 5 21.1
2018-May-27 07:54 191 1 gusting 6 21.1
2018-May-27 07:49 139 1 gusting 4 21.1
2018-May-27 07:44 146 1 gusting 4 20.6
2018-May-27 07:39 282 1 gusting 4 20.6
2018-May-27 07:34 282 2 gusting 4 20.6
2018-May-27 07:29 294 2 gusting 4 20.0
2018-May-27 07:24 305 1 gusting 6 20.0
2018-May-27 07:19 307 1 gusting 6 20.0
2018-May-27 07:14 221 1 gusting 5 20.0
2018-May-27 07:09 194 1 gusting 4 20.0
2018-May-27 07:04 253 2 gusting 4 19.4
2018-May-27 06:59 270 2 gusting 4 19.4
2018-May-27 06:54 274 1 gusting 5 19.4
2018-May-27 06:49 264 1 gusting 5 19.4
2018-May-27 06:44 259 1 gusting 5 19.4
2018-May-27 06:39 201 1 gusting 5 19.4
2018-May-27 06:34 188 1 gusting 5 19.4
2018-May-27 06:29 189 1 gusting 4 18.9
2018-May-27 06:24 237 4 gusting 4 18.9
2018-May-27 06:19 173 4 gusting 5 18.9
2018-May-27 06:14 175 4 gusting 7 18.9
2018-May-27 06:09 164 4 gusting 7 18.3
2018-May-27 06:04 161 2 gusting 6 18.3
2018-May-27 05:59 196 2 gusting 6 18.3
2018-May-27 05:54 193 2 gusting 6 18.3
2018-May-27 05:49 210 2 gusting 6 18.3
2018-May-27 05:44 262 4 gusting 4 18.3
2018-May-27 05:39 237 4 gusting 6 18.3
2018-May-27 05:34 236 4 gusting 6 18.3
2018-May-27 05:29 227 4 gusting 6 18.3
2018-May-27 05:24 213 4 gusting 6 17.8
2018-May-27 05:19 190 4 gusting 6 17.8
2018-May-27 05:14 247 2 gusting 8 18.3
2018-May-27 05:09 262 2 gusting 6 18.3
2018-May-27 05:04 259 2 gusting 4 18.3
2018-May-27 04:59 237 2 gusting 5 18.3
2018-May-27 04:54 225 2 gusting 6 18.3
2018-May-27 04:49 205 2 gusting 6 18.3
2018-May-27 04:44 205 4 gusting 4 18.3
2018-May-27 04:39 182 4 gusting 6 18.3
2018-May-27 04:34 206 1 gusting 6 18.3
2018-May-27 04:29 212 1 gusting 6 18.3
2018-May-27 04:24 216 1 gusting 6 18.3
2018-May-27 04:19 212 1 gusting 4 18.3
2018-May-27 04:14 225 2 gusting 4 18.3
2018-May-27 04:09 199 2 gusting 4 18.3
2018-May-27 04:04 214 4 gusting 5 18.3
2018-May-27 03:59 209 4 gusting 6 18.3
2018-May-27 03:54 202 4 gusting 5 18.3
2018-May-27 03:49 200 4 gusting 5 18.3
2018-May-27 03:44 173 4 gusting 5 18.3
2018-May-27 03:39 194 4 gusting 6 18.3
2018-May-27 03:34 201 4 gusting 6 18.3
2018-May-27 03:29 173 4 gusting 7 18.3
2018-May-27 03:24 199 4 gusting 7 18.3
2018-May-27 03:19 174 4 gusting 6 18.3
2018-May-27 03:14 199 4 gusting 6 18.3
2018-May-27 03:09 199 4 gusting 6 18.3
2018-May-27 03:04 194 4 gusting 6 18.3
2018-May-27 02:59 221 4 gusting 6 18.3
2018-May-27 02:54 215 2 gusting 6 18.3
2018-May-27 02:49 238 2 gusting 6 18.3
2018-May-27 02:44 229 1 gusting 6 18.3
2018-May-27 02:39 239 1 gusting 5 18.3
2018-May-27 02:34 256 1 gusting 5 18.3
2018-May-27 02:29 265 1 gusting 4 18.3
2018-May-27 02:24 266 1 gusting 4 18.9
2018-May-27 02:19 290 1 gusting 4 18.9
2018-May-27 02:14 185 2 gusting 4 18.9
2018-May-27 02:09 185 2 gusting 4 18.9
2018-May-27 02:04 183 1 gusting 5 18.9
2018-May-27 01:59 157 1 gusting 5 18.3
2018-May-27 01:54 146 0 gusting 4 18.3
2018-May-27 01:49 243 0 gusting 4 18.9
2018-May-27 01:44 280 18.9
2018-May-27 01:39 280 18.9
2018-May-27 01:29 280 1 gusting 4 18.9
2018-May-27 01:24 280 1 gusting 4 18.9
2018-May-27 01:19 280 1 gusting 2 18.9
2018-May-27 01:14 304 1 gusting 4 18.3
2018-May-27 01:09 312 1 gusting 2 18.3
2018-May-27 01:04 315 1 gusting 4 18.9
2018-May-27 00:59 315 1 gusting 4 18.9
2018-May-27 00:54 322 1 gusting 2 18.9
2018-May-27 00:49 322 1 gusting 4 18.9
2018-May-27 00:44 311 1 gusting 4 18.9
2018-May-27 00:39 311 1 gusting 2 18.9
2018-May-27 00:34 311 1 gusting 4 18.9
2018-May-27 00:29 308 1 gusting 4 18.9
2018-May-27 00:24 339 1 gusting 4 18.9
2018-May-27 00:19 044 1 gusting 2 18.9
2018-May-27 00:14 044 1 gusting 2 18.9
2018-May-27 00:09 044 1 gusting 4 18.9
2018-May-27 00:04 044 1 gusting 4 18.9
2018-May-26 23:59 044 1 gusting 4 18.9
2018-May-26 23:54 044 1 gusting 4 18.9
2018-May-26 23:49 054 1 gusting 2 18.9
2018-May-26 23:44 055 1 gusting 4 18.9
2018-May-26 23:39 038 1 gusting 4 18.9
2018-May-26 23:34 038 2 gusting 4 18.9
2018-May-26 23:29 038 2 gusting 4 18.9
2018-May-26 23:24 063 2 gusting 4 18.9
2018-May-26 23:19 070 2 gusting 5 18.9
2018-May-26 23:14 048 4 gusting 5 18.9
2018-May-26 23:09 044 4 gusting 5 18.9
2018-May-26 23:04 048 4 gusting 6 18.9
2018-May-26 22:59 039 4 gusting 6 18.9
2018-May-26 22:54 043 5 gusting 5 18.9
2018-May-26 22:49 039 5 gusting 7 18.9
2018-May-26 22:44 046 4 gusting 7 18.9
2018-May-26 22:39 038 4 gusting 6 18.9
2018-May-26 22:34 047 5 gusting 6 18.9
2018-May-26 22:29 049 5 gusting 6 18.9
2018-May-26 22:24 035 4 gusting 6 18.9
2018-May-26 22:19 052 4 gusting 7 18.9
2018-May-26 22:14 050 5 gusting 6 18.9
2018-May-26 22:09 057 5 gusting 6 18.9
2018-May-26 22:04 046 4 gusting 7 18.9
2018-May-26 21:59 047 4 gusting 7 18.9
2018-May-26 21:54 051 4 gusting 6 18.9
2018-May-26 21:49 035 4 gusting 6 18.9
2018-May-26 21:44 036 4 gusting 6 19.4
2018-May-26 21:39 041 4 gusting 6 19.4
2018-May-26 21:34 036 2 gusting 6 19.4
2018-May-26 21:29 036 2 gusting 6 19.4
2018-May-26 21:24 036 4 gusting 6 19.4
2018-May-26 21:19 035 4 gusting 6 19.4
2018-May-26 21:14 051 5 gusting 6 19.4
2018-May-26 21:09 047 5 gusting 7 19.4
2018-May-26 21:04 043 4 gusting 6 19.4
2018-May-26 20:59 044 4 gusting 7 19.4
2018-May-26 20:54 050 4 gusting 6 19.4
2018-May-26 20:49 050 4 gusting 6 19.4
2018-May-26 20:44 052 5 gusting 6 19.4
2018-May-26 20:39 063 5 gusting 6 19.4
2018-May-26 20:34 039 6 gusting 7 20.0
2018-May-26 20:29 057 6 gusting 10 20.0
2018-May-26 20:24 043 6 gusting 11 20.0
2018-May-26 20:19 051 6 gusting 11 20.0
2018-May-26 20:14 053 8 gusting 12 20.0
2018-May-26 20:09 047 8 gusting 13 20.0
2018-May-26 20:04 052 8 gusting 13 20.0
2018-May-26 19:59 048 8 gusting 13 20.0
2018-May-26 19:54 048 8 gusting 12 20.0
2018-May-26 19:49 046 8 gusting 13 20.0
2018-May-26 19:44 043 8 gusting 14 20.0
2018-May-26 19:39 047 8 gusting 12 20.6
2018-May-26 19:34 041 8 gusting 14 20.6
2018-May-26 19:29 054 8 gusting 14 20.6
2018-May-26 19:24 049 8 gusting 13 20.6
2018-May-26 19:19 049 8 gusting 13 20.6
2018-May-26 19:14 057 8 gusting 13 21.1
2018-May-26 19:09 050 8 gusting 13 21.1
2018-May-26 19:04 050 10 gusting 13 21.1
2018-May-26 18:59 042 10 gusting 14 21.1
2018-May-26 18:54 047 10 gusting 15 21.1
2018-May-26 18:49 058 10 gusting 18 21.7
2018-May-26 18:44 050 10 gusting 17 21.7
2018-May-26 18:39 048 10 gusting 18 21.7
2018-May-26 18:34 051 12 gusting 15 21.7
2018-May-26 18:29 037 12 gusting 14 22.2
2018-May-26 18:24 049 10 gusting 18 22.2
2018-May-26 18:19 050 10 gusting 18 22.2
2018-May-26 18:14 041 11 gusting 18 22.8
2018-May-26 18:09 040 11 gusting 18 22.8
2018-May-26 18:04 034 11 gusting 15 23.3
2018-May-26 17:59 045 11 gusting 18 23.3
2018-May-26 17:54 049 10 gusting 18 23.3
2018-May-26 17:49 040 10 gusting 18 23.3
2018-May-26 17:44 033 10 gusting 18 23.9
2018-May-26 17:39 044 10 gusting 15 23.9
2018-May-26 17:34 031 10 gusting 18 24.4
2018-May-26 17:29 045 10 gusting 14 24.4
2018-May-26 17:24 050 8 gusting 15 24.4
2018-May-26 17:19 029 8 gusting 15 25.0
2018-May-26 17:14 053 10 gusting 13 25.0
2018-May-26 17:09 063 10 gusting 13 25.0
2018-May-26 17:04 043 8 gusting 18 25.0
2018-May-26 16:59 046 8 gusting 18 25.0
2018-May-26 16:54 046 10 gusting 17 25.0
2018-May-26 16:49 038 10 gusting 18 25.0
2018-May-26 16:44 039 10 gusting 18 25.0
2018-May-26 16:39 051 10 gusting 17 25.0
2018-May-26 16:34 040 11 gusting 14 25.0
2018-May-26 16:29 037 11 gusting 18 25.0
2018-May-26 16:24 032 10 gusting 17 25.0
2018-May-26 16:19 043 10 gusting 15 25.0
2018-May-26 16:14 052 8 gusting 14 25.0
2018-May-26 16:09 048 8 gusting 13 25.6
2018-May-26 16:04 040 10 gusting 14 25.0
2018-May-26 15:59 052 10 gusting 15 25.0
2018-May-26 15:54 058 10 gusting 17 25.0
2018-May-26 15:49 038 10 gusting 18 24.4
2018-May-26 15:44 045 8 gusting 18 25.0
2018-May-26 15:39 047 8 gusting 18 25.0
2018-May-26 15:34 039 11 gusting 13 25.0
2018-May-26 15:29 062 11 gusting 15 25.0
2018-May-26 15:24 033 11 gusting 15 25.0
2018-May-26 15:19 051 11 gusting 19 25.0
2018-May-26 15:14 056 11 gusting 19 25.0
2018-May-26 15:09 041 11 gusting 18 25.0
2018-May-26 15:04 058 11 gusting 18 25.0
2018-May-26 14:59 034 11 gusting 18 25.0
2018-May-26 14:54 051 12 gusting 17 25.0
2018-May-26 14:49 047 12 gusting 19 25.0
2018-May-26 14:44 044 11 gusting 18 25.0
2018-May-26 14:39 049 11 gusting 15 25.0
2018-May-26 14:34 054 11 gusting 15 25.0
2018-May-26 14:29 044 11 gusting 19 25.0
2018-May-26 14:24 042 11 gusting 19 25.0
2018-May-26 14:19 056 11 gusting 19 25.0
2018-May-26 14:14 023 12 gusting 19 25.0
2018-May-26 14:09 029 12 gusting 18 25.0
2018-May-26 14:04 054 12 gusting 19 25.0
2018-May-26 13:59 056 12 gusting 18 25.0
2018-May-26 13:54 058 12 gusting 15 25.0
2018-May-26 13:49 043 12 gusting 19 25.0
2018-May-26 13:44 050 8 gusting 19 25.0
2018-May-26 13:39 037 8 gusting 18 25.6
2018-May-26 13:34 054 10 gusting 18 25.6
2018-May-26 13:29 039 10 gusting 18 25.0
2018-May-26 13:24 063 12 gusting 18 25.0
2018-May-26 13:19 049 12 gusting 18 25.0
2018-May-26 13:14 035 10 gusting 20 25.0
2018-May-26 13:09 043 10 gusting 20 25.0
2018-May-26 13:04 049 8 gusting 13 25.0
2018-May-26 12:59 046 8 gusting 18 25.0
2018-May-26 12:54 042 8 gusting 18 25.0
2018-May-26 12:49 048 8 gusting 18 25.0
2018-May-26 12:44 048 10 gusting 15 24.4
2018-May-26 12:39 037 10 gusting 14 24.4
2018-May-26 12:34 051 8 gusting 17 24.4
2018-May-26 12:29 050 8 gusting 17 24.4
2018-May-26 12:24 067 8 gusting 14 24.4
2018-May-26 12:19 047 8 gusting 15 24.4
2018-May-26 12:14 050 8 gusting 13 24.4
2018-May-26 12:09 031 8 gusting 15 24.4
2018-May-26 12:04 052 10 gusting 13 24.4
2018-May-26 11:59 047 10 gusting 15 24.4
2018-May-26 11:54 049 11 gusting 15 24.4
2018-May-26 11:49 050 11 gusting 20 24.4
2018-May-26 11:44 046 10 gusting 17 24.4
2018-May-26 11:39 060 10 gusting 18 24.4
2018-May-26 11:34 041 8 gusting 18 24.4
2018-May-26 11:29 047 8 gusting 15 25.0
2018-May-26 11:24 048 7 gusting 14 25.0
2018-May-26 11:19 036 7 gusting 13 25.0
2018-May-26 11:14 053 8 gusting 14 25.0
2018-May-26 11:09 051 8 gusting 14 24.4
2018-May-26 11:04 030 6 gusting 13 25.0
2018-May-26 10:59 050 6 gusting 13 25.0
2018-May-26 10:54 041 6 gusting 11 25.0
2018-May-26 10:49 058 6 gusting 12 25.0
2018-May-26 10:44 028 5 gusting 11 24.4
2018-May-26 10:39 032 5 gusting 14 24.4
2018-May-26 10:34 108 6 gusting 7 24.4
2018-May-26 10:29 075 6 gusting 12 24.4
2018-May-26 10:24 034 4 gusting 12 24.4
2018-May-26 10:19 026 4 gusting 7 24.4
2018-May-26 10:14 067 4 gusting 6 23.9
2018-May-26 10:09 016 4 gusting 10 23.9
2018-May-26 10:04 093 4 gusting 6 23.9
2018-May-26 09:59 028 4 gusting 10 23.3
2018-May-26 09:54 049 5 gusting 7 23.9
2018-May-26 09:49 044 5 gusting 8 23.9
2018-May-26 09:44 068 2 gusting 6 23.9
2018-May-26 09:39 047 2 gusting 8 23.3
2018-May-26 09:34 081 4 gusting 5 23.3
2018-May-26 09:29 189 4 gusting 6 23.3
2018-May-26 09:24 044 4 gusting 10 22.8
2018-May-26 09:19 320 4 gusting 7 22.8
2018-May-26 09:14 335 4 gusting 6 22.8
2018-May-26 09:09 312 4 gusting 6 22.8
2018-May-26 09:04 021 1 gusting 6 22.8
2018-May-26 08:59 137 1 gusting 6 23.3
2018-May-26 08:54 039 1 gusting 4 23.3
2018-May-26 08:49 064 1 gusting 4 22.8
2018-May-26 08:44 058 1 gusting 1 22.8
2018-May-26 08:39 040 1 gusting 4 22.8
2018-May-26 08:34 333 2 gusting 5 22.2
2018-May-26 08:29 041 2 gusting 5 22.2
2018-May-26 08:24 041 2 gusting 6 21.7
2018-May-26 08:19 012 2 gusting 6 21.7
2018-May-26 08:14 313 1 gusting 5 21.7
2018-May-26 08:09 073 1 gusting 6 21.7
2018-May-26 08:04 035 1 gusting 4 21.1
2018-May-26 07:59 056 1 gusting 4 21.1
2018-May-26 07:54 261 2 gusting 4 21.1
2018-May-26 07:49 333 2 gusting 2 21.1
2018-May-26 07:44 025 2 gusting 6 20.6
2018-May-26 07:39 010 2 gusting 6 20.6
2018-May-26 07:34 042 1 gusting 5 20.6
2018-May-26 07:29 066 1 gusting 5 20.6
2018-May-26 07:24 068 2 gusting 4 20.6
2018-May-26 07:19 20.6
2018-May-26 07:14 328 1 gusting 5 20.6
2018-May-26 07:09 038 1 gusting 6 20.6
2018-May-26 07:04 041 2 gusting 2 20.6
2018-May-26 06:59 038 2 gusting 5 20.0
2018-May-26 06:54 066 4 gusting 5 20.0
2018-May-26 06:49 027 4 gusting 5 20.0
2018-May-26 06:44 049 1 gusting 5 20.0
2018-May-26 06:39 059 1 gusting 5 20.0
2018-May-26 06:34 069 1 gusting 4 20.0
2018-May-26 06:29 017 1 gusting 4 19.4
2018-May-26 06:24 004 2 gusting 4 19.4
2018-May-26 06:19 334 2 gusting 5 18.9
2018-May-26 06:14 298 2 gusting 5 18.9
2018-May-26 06:09 311 2 gusting 5 18.9
2018-May-26 06:04 301 1 gusting 5 18.9
2018-May-26 05:59 324 1 gusting 4 18.3
2018-May-26 05:54 275 1 gusting 5 18.3
2018-May-26 05:49 300 1 gusting 4 18.3
2018-May-26 05:44 033 2 gusting 2 18.3
2018-May-26 05:39 317 2 gusting 5 18.3
2018-May-26 05:34 288 2 gusting 5 17.8
2018-May-26 05:29 298 2 gusting 5 17.8
2018-May-26 05:24 297 2 gusting 4 17.8
2018-May-26 05:19 288 2 gusting 4 17.8
2018-May-26 05:14 292 4 gusting 5 17.8
2018-May-26 05:09 295 4 gusting 5 17.8
2018-May-26 05:04 296 2 gusting 5 17.8
2018-May-26 04:59 301 2 gusting 6 18.3
2018-May-26 04:54 306 2 gusting 6 18.3
2018-May-26 04:49 290 2 gusting 5 18.3
2018-May-26 04:44 300 1 gusting 5 18.3
2018-May-26 04:39 293 1 gusting 5 18.3
2018-May-26 04:34 299 1 gusting 5 18.3
2018-May-26 04:29 293 1 gusting 4 18.3
2018-May-26 04:24 272 0 gusting 4 18.3
2018-May-26 04:19 271 0 gusting 1 18.3
2018-May-26 04:14 271 18.3
2018-May-26 04:09 271 18.3
2018-May-26 04:04 271 0 18.3
2018-May-26 03:59 271 0 gusting 1 18.3
2018-May-26 03:54 271 1 gusting 1 18.3
2018-May-26 03:49 271 1 gusting 2 18.3
2018-May-26 03:44 271 1 gusting 2 18.3
2018-May-26 03:39 271 1 gusting 4 18.3
2018-May-26 03:34 273 1 gusting 4 18.3
2018-May-26 03:29 276 1 gusting 2 18.3
2018-May-26 03:24 276 1 gusting 2 18.3
2018-May-26 03:19 276 1 gusting 4 18.3
2018-May-26 03:14 267 1 gusting 4 18.3
2018-May-26 03:09 305 1 gusting 4 18.3
2018-May-26 03:04 038 1 gusting 4 18.3
2018-May-26 02:59 038 1 gusting 2 18.3
2018-May-26 02:54 038 1 gusting 4 18.3
2018-May-26 02:49 035 1 gusting 5 18.3
2018-May-26 02:44 035 1 gusting 5 18.3
2018-May-26 02:39 024 1 gusting 2 18.3
2018-May-26 02:34 024 1 gusting 2 18.3
2018-May-26 02:29 023 1 gusting 4 18.3
2018-May-26 02:24 337 1 gusting 4 18.3
2018-May-26 02:19 050 1 gusting 1 18.3
2018-May-26 02:14 043 18.3
2018-May-26 02:09 053 18.3
2018-May-26 02:04 001 0 gusting 2 18.3
2018-May-26 01:59 357 0 gusting 1 18.3
2018-May-26 01:54 357 1 gusting 2 18.3
2018-May-26 01:49 18.3
2018-May-26 01:44 17.8
2018-May-26 01:39 323 1 gusting 5 17.8
2018-May-26 01:34 020 1 gusting 4 17.8
2018-May-26 01:29 024 1 gusting 1 17.8
2018-May-26 01:24 024 1 gusting 2 17.8
2018-May-26 01:19 022 1 gusting 4 17.8
2018-May-26 01:14 046 1 gusting 1 17.8
2018-May-26 01:09 046 1 gusting 5 17.8
2018-May-26 01:04 032 2 gusting 4 18.3
2018-May-26 00:59 034 2 gusting 5 18.3
2018-May-26 00:54 041 0 gusting 6 18.3
2018-May-26 00:49 043 0 gusting 5 18.3
2018-May-26 00:44 037 2 gusting 1 18.3
2018-May-26 00:39 037 2 gusting 4 18.3
2018-May-26 00:34 051 4 gusting 4 18.3
2018-May-26 00:29 036 4 gusting 5 18.3
2018-May-26 00:24 039 4 gusting 5 18.3
2018-May-26 00:19 041 4 gusting 5 18.3
2018-May-26 00:14 018 4 gusting 6 18.3
2018-May-26 00:09 042 4 gusting 6 18.3
2018-May-26 00:04 043 4 gusting 6 18.3
2018-May-25 23:59 042 4 gusting 6 18.3
2018-May-25 23:54 034 4 gusting 6 18.3
2018-May-25 23:49 035 4 gusting 6 18.3
2018-May-25 23:44 030 4 gusting 6 18.3
2018-May-25 23:39 029 4 gusting 7 18.3
2018-May-25 23:34 029 4 gusting 6 18.3
2018-May-25 23:29 027 4 gusting 6 18.3
2018-May-25 23:24 020 6 gusting 7 18.3
2018-May-25 23:19 017 6 gusting 7 18.3
2018-May-25 23:14 027 5 gusting 10 18.3
2018-May-25 23:09 037 5 gusting 11 18.9
2018-May-25 23:04 029 6 gusting 10 18.9
2018-May-25 22:59 029 6 gusting 8 18.9
2018-May-25 22:54 014 6 gusting 10 18.9
2018-May-25 22:49 025 6 gusting 10 18.9
2018-May-25 22:44 027 6 gusting 11 18.9
2018-May-25 22:39 038 6 gusting 11 18.9
2018-May-25 22:34 038 6 gusting 8 18.9
2018-May-25 22:29 041 6 gusting 10 18.9
2018-May-25 22:24 038 7 gusting 13 18.9
2018-May-25 22:19 034 7 gusting 13 18.9
2018-May-25 22:14 041 6 gusting 14 18.9
2018-May-25 22:09 048 6 gusting 10 19.4
2018-May-25 22:04 042 7 gusting 12 19.4
2018-May-25 21:59 033 7 gusting 11 19.4
2018-May-25 21:54 037 8 gusting 14 19.4
2018-May-25 21:49 049 8 gusting 14 19.4
2018-May-25 21:44 042 10 gusting 14 19.4
2018-May-25 21:39 035 10 gusting 14 19.4
2018-May-25 21:34 054 11 gusting 13 19.4
2018-May-25 21:29 035 11 gusting 18 19.4
2018-May-25 21:24 052 10 gusting 19 19.4
2018-May-25 21:19 049 10 gusting 19 19.4
2018-May-25 21:14 053 11 gusting 15 19.4
2018-May-25 21:09 047 11 gusting 18 19.4
2018-May-25 21:04 041 11 gusting 15 19.4
2018-May-25 20:59 041 11 gusting 21 19.4
2018-May-25 20:54 044 10 gusting 21 20.0
2018-May-25 20:49 040 10 gusting 14 20.0
2018-May-25 20:44 029 11 gusting 17 20.0
2018-May-25 20:39 038 11 gusting 14 20.0
2018-May-25 20:34 037 12 gusting 19 20.0
2018-May-25 20:29 050 12 gusting 19 20.0
2018-May-25 20:24 051 8 gusting 19 20.0
2018-May-25 20:19 036 8 gusting 20 20.6
2018-May-25 20:14 038 10 gusting 20 20.6
2018-May-25 20:09 014 10 gusting 14 20.6
2018-May-25 20:04 022 10 gusting 14 20.6
2018-May-25 19:59 031 10 gusting 20 21.1
2018-May-25 19:54 034 11 gusting 15 21.1
2018-May-25 19:49 040 11 gusting 15 21.1
2018-May-25 19:44 033 10 gusting 18 21.7
2018-May-25 19:39 057 10 gusting 18 22.2
2018-May-25 19:34 038 6 gusting 18 23.3
2018-May-25 19:29 030 6 gusting 15 25.0
2018-May-25 19:24 048 4 gusting 10 25.6
2018-May-25 19:19 035 4 gusting 8 25.6
2018-May-25 19:14 044 2 gusting 7 26.1
2018-May-25 19:09 039 2 gusting 6 26.1
2018-May-25 19:04 342 4 gusting 6 26.1
2018-May-25 18:59 129 4 gusting 8 26.1
2018-May-25 18:54 105 6 gusting 8 26.1
2018-May-25 18:49 098 6 gusting 14 26.7
2018-May-25 18:44 142 6 gusting 17 26.7
2018-May-25 18:39 137 6 gusting 11 26.7
2018-May-25 18:34 133 6 gusting 11 26.7
2018-May-25 18:29 134 6 gusting 11 26.7
2018-May-25 18:24 140 8 gusting 13 26.7
2018-May-25 18:19 139 8 gusting 11 26.7
2018-May-25 18:14 147 8 gusting 13 27.2
2018-May-25 18:09 145 8 gusting 17 27.2
2018-May-25 18:04 129 8 gusting 13 26.7
2018-May-25 17:59 143 8 gusting 15 27.2
2018-May-25 17:54 130 10 gusting 15 27.2
2018-May-25 17:49 132 10 gusting 15 27.2
2018-May-25 17:44 141 10 gusting 15 27.2
2018-May-25 17:39 132 10 gusting 19 27.8
2018-May-25 17:34 137 11 gusting 15 27.8
2018-May-25 17:29 146 11 gusting 17 27.8
2018-May-25 17:24 162 10 gusting 19 27.8
2018-May-25 17:19 145 10 gusting 19 27.8
2018-May-25 17:14 145 11 gusting 18 27.8
2018-May-25 17:09 152 11 gusting 18 27.8
2018-May-25 17:04 128 10 gusting 17 27.8
2018-May-25 16:59 123 10 gusting 18 27.8
2018-May-25 16:54 137 10 gusting 15 27.8
2018-May-25 16:49 138 10 gusting 19 27.8
2018-May-25 16:44 137 10 gusting 19 27.8
2018-May-25 16:39 165 10 gusting 19 28.3
2018-May-25 16:34 153 7 gusting 17 27.8
2018-May-25 16:29 156 7 gusting 17 27.8
2018-May-25 16:24 124 10 gusting 15 28.3
2018-May-25 16:19 119 10 gusting 15 27.8
2018-May-25 16:14 136 10 gusting 13 27.8
2018-May-25 16:09 124 10 gusting 18 27.8
2018-May-25 16:04 141 10 gusting 18 27.8
2018-May-25 15:59 120 10 gusting 15 27.8
2018-May-25 15:54 151 8 gusting 17 27.8
2018-May-25 15:49 137 8 gusting 15 28.3
2018-May-25 15:44 138 11 gusting 14 28.3
2018-May-25 15:39 169 11 gusting 14 28.3
2018-May-25 15:34 133 12 gusting 18 28.3
2018-May-25 15:29 138 12 gusting 18 28.3
2018-May-25 15:24 147 11 gusting 19 28.3
2018-May-25 15:19 134 11 gusting 19 28.3
2018-May-25 15:14 154 10 gusting 15 28.3
2018-May-25 15:09 152 10 gusting 15 28.9
2018-May-25 15:04 143 10 gusting 15 28.9
2018-May-25 14:59 175 10 gusting 14 28.9
2018-May-25 14:54 189 8 gusting 15 28.9
2018-May-25 14:49 171 8 gusting 15 28.9
2018-May-25 14:44 167 8 gusting 12 28.9
2018-May-25 14:39 168 8 gusting 15 28.9
2018-May-25 14:34 183 8 gusting 13 28.3
2018-May-25 14:29 151 8 gusting 15 28.3
2018-May-25 14:24 161 8 gusting 15 28.9
2018-May-25 14:19 143 8 gusting 18 28.3
2018-May-25 14:14 170 8 gusting 15 28.9
2018-May-25 14:09 144 8 gusting 13 28.9
2018-May-25 14:04 126 7 gusting 13 28.3
2018-May-25 13:59 181 7 gusting 13 28.9
2018-May-25 13:54 157 7 gusting 14 28.9
2018-May-25 13:49 144 7 gusting 15 28.9
2018-May-25 13:44 163 8 gusting 13 28.3
2018-May-25 13:39 077 8 gusting 14 27.8
2018-May-25 13:34 099 10 gusting 15 27.8
2018-May-25 13:29 116 10 gusting 15 28.3
2018-May-25 13:24 119 5 gusting 14 28.3
2018-May-25 13:19 113 5 gusting 15 28.3
2018-May-25 13:14 109 6 gusting 10 28.9
2018-May-25 13:09 089 6 gusting 10 28.3
2018-May-25 13:04 189 2 gusting 11 28.3
2018-May-25 12:59 190 2 gusting 11 28.3
2018-May-25 12:54 110 1 gusting 6 28.3
2018-May-25 12:49 114 1 gusting 5 27.8
2018-May-25 12:44 293 4 gusting 5 27.8
2018-May-25 12:39 308 4 gusting 4 27.8
2018-May-25 12:34 305 2 gusting 7 27.8
2018-May-25 12:29 316 2 gusting 7 27.8
2018-May-25 12:24 336 2 gusting 7 28.3
2018-May-25 12:19 079 2 gusting 6 27.8
2018-May-25 12:14 041 5 gusting 4 27.2
2018-May-25 12:09 218 5 gusting 7 27.2
2018-May-25 12:04 160 5 gusting 6 27.2
2018-May-25 11:59 247 5 gusting 10 27.2
2018-May-25 11:54 208 4 gusting 11 27.2
2018-May-25 11:49 209 4 gusting 10 27.2
2018-May-25 11:44 179 6 gusting 6 27.2
2018-May-25 11:39 298 6 gusting 10 26.7
2018-May-25 11:34 289 5 gusting 8 26.7
2018-May-25 11:29 231 5 gusting 13 26.7
2018-May-25 11:24 313 4 gusting 8 26.7
2018-May-25 11:19 252 4 gusting 11 26.7
2018-May-25 11:14 227 4 gusting 12 26.7
2018-May-25 11:09 206 4 gusting 7 26.7
2018-May-25 11:04 239 5 gusting 8 26.7